Weather reports worldwide

Advertisment
Le Touquet, France (7003): temperature & dewpoint: 25.09.2020 23:00:00 - 01.10.2020 23:00:00 (CEST)Le Touquet, France (7003): temperature 5cm: 25.09.2020 23:00:00 - 01.10.2020 23:00:00 (CEST)Le Touquet, France (7003): wind speed & gusts: 25.09.2020 23:00:00 - 01.10.2020 23:00:00 (CEST)Le Touquet, France (7003): wind direction: 25.09.2020 23:00:00 - 01.10.2020 23:00:00 (CEST)Le Touquet, France (7003): reduced air pressure: 25.09.2020 23:00:00 - 01.10.2020 23:00:00 (CEST)Le Touquet, France (7003): visibility: 25.09.2020 23:00:00 - 01.10.2020 23:00:00 (CEST)Le Touquet, France (7003): sunshine duration: 25.09.2020 23:00:00 - 01.10.2020 23:00:00 (CEST)Le Touquet, France (7003): precipitation: 25.09.2020 23:00:00 - 01.10.2020 23:00:00 (CEST)
Date & Time tt [°C] td [°C] tt 5cm [°C] ff [km/h] ff [kn] fx [km/h] fx [kn] dd ppp [hPa] vv [km] sd [min] rr [mm]
01.10.2020 23:00:00 8,8 7,9 7,4 9 5 15 8 ESE 996,8 59 0 0,0
01.10.2020 22:00:00 10,0 9,1 8,8 9 5 15 8 ESE 997,8 20 0 0,2
01.10.2020 21:00:00 10,3 9,1 9,3 12 6 15 8 SE 998,3 60 0 0,2
01.10.2020 20:00:00 11,6 9,2 10,1 10 5 40 21 S 998,8 7 0 1,2
01.10.2020 19:00:00 13,5 8,8 11,7 13 7 23 12 SW 999,0 20 1 0,0
01.10.2020 18:00:00 13,9 8,5 12,5 9 5 45 24 W 999,4 56 32 0,0
01.10.2020 17:00:00 14,8 8,5 12,1 17 9 35 19 WSW 999,7 59 38 0,0
01.10.2020 16:00:00 13,3 11,0 11,8 20 11 43 23 W 1000,0 4,2 27 0,6
01.10.2020 15:00:00 15,6 9,5 13,6 18 10 37 20 W 999,6 17 54 0,0
01.10.2020 14:00:00 15,0 10,2 13,0 21 11 44 24 W 999,7 20 39 0,0
01.10.2020 13:00:00 14,6 11,2 13,1 22 12 40 22 W 999,1 47 26 0,0
01.10.2020 12:00:00 14,1 11,8 13,1 16 9 29 16 W 998,9 56 0 0,2
01.10.2020 11:00:00 13,5 11,7 12,8 7 4 19 11 WNW 998,3 56 0 0,4
01.10.2020 10:00:00 13,3 12,0 13,2 10 6 19 10 W 998,0 13 0 0,9
01.10.2020 09:00:00 13,2 12,6 12,7 3 2 8 4 SSW 998,3 10 0 0,8
01.10.2020 08:00:00 13,0 12,1 13,0 8 5 21 12 NW 998,5 14 0 2,0
01.10.2020 07:00:00 14,1 13,5 13,6 7 4 27 14 SSW 998,5 2,6 0 1,6
01.10.2020 06:00:00 14,3 13,3 13,6 14 8 26 14 SSE 999,3 8 0 0,8
01.10.2020 05:00:00 14,5 13,0 13,6 14 8 25 14 SSE 999,9 16 0 0,0
01.10.2020 04:00:00 14,4 13,1 13,6 13 7 23 12 SSE 1001,0 58 0 0,0
01.10.2020 03:00:00 14,3 13,5 13,8 13 7 24 13 SSE 1002,0 41 0 1,0
01.10.2020 02:00:00 14,5 13,5 13,8 13 7 22 12 SSE 1003,0 8 0 1,8
01.10.2020 01:00:00 14,8 13,5 14,0 13 7 22 12 S 1004,1 5 0 0,8
01.10.2020 00:00:00 15,2 13,4 14,1 11 6 24 13 SSE 1004,7 51 0 0,6
30.09.2020 23:00:00 16,2 13,1 14,5 14 7 25 13 SSE 1005,4 10 0 0,2
30.09.2020 22:00:00 16,6 13,1 15,6 14 8 30 16 SSE 1005,9 60 0 0,0
30.09.2020 21:00:00 17,0 13,1 15,9 16 9 32 17 SSE 1006,6 60 0 0,0
30.09.2020 20:00:00 17,2 13,9 16,0 16 8 28 15 SSE 1007,1 60 0 0,0
30.09.2020 19:00:00 17,3 14,6 16,3 10 5 20 11 SSE 1007,5 60 0 0,0
30.09.2020 18:00:00 18,0 13,7 16,9 13 7 24 13 S 1008,2 35 0 0,0
30.09.2020 17:00:00 17,6 13,9 17,0 11 6 27 15 SSE 1009,0 54 0 0,0
30.09.2020 16:00:00 18,0 12,7 17,2 11 6 39 21 S 1009,8 54 0 0,0
30.09.2020 15:00:00 18,0 12,9 17,9 20 11 34 18 SSW 1010,4 38 7 0,0
30.09.2020 14:00:00 18,0 13,5 17,7 20 11 38 20 SSW 1011,1 39 12 0,0
30.09.2020 13:00:00 17,8 13,1 18,0 17 9 35 19 SSW 1011,8 26 28 0,0
30.09.2020 12:00:00 17,2 14,1 16,5 19 10 34 18 SSW 1012,1 29 21 0,0
30.09.2020 11:00:00 16,1 14,5 16,1 14 8 27 15 SSW 1012,8 47 4 0,0
30.09.2020 10:00:00 15,4 14,8 14,6 9 5 16 8 S 1013,2 13 7 0,0
30.09.2020 09:00:00 14,7 14,2 14,1 7 4 16 9 SSE 1013,3 7 0 0,0
30.09.2020 08:00:00 14,5 14,0 14,0 7 4 13 7 SSE 1013,3 12 0 0,0
30.09.2020 07:00:00 14,4 13,9 13,4 7 4 15 8 S 1013,6 9 0 0,0
30.09.2020 06:00:00 14,0 13,4 13,1 9 5 14 7 SSE 1013,7 8 0 0,0
30.09.2020 05:00:00 13,9 13,1 12,9 6 3 16 9 SSE 1014,4 14 0 0,0
30.09.2020 04:00:00 14,1 13,3 13,5 9 5 15 8 SSE 1015,1 20 0 0,0
30.09.2020 03:00:00 14,3 13,3 13,4 9 5 17 9 SSE 1015,5 19 0 0,0
30.09.2020 02:00:00 14,7 13,2 13,5 6 3 11 6 SSE 1015,6 50 0 0,0
30.09.2020 01:00:00 15,2 13,0 12,8 5 3 16 9 SSW 1016,2 60 0 0,0
30.09.2020 00:00:00 15,6 13,1 13,9 8 4 13 7 SW 1016,6 60 0 0,0
29.09.2020 23:00:00 15,9 13,2 14,1 6 4 14 8 SW 1016,9 57 0 0,0
29.09.2020 22:00:00 15,8 13,6 14,1 6 3 12 7 WSW 1016,9 60 0 0,0
29.09.2020 21:00:00 16,1 14,1 14,9 7 4 12 7 SW 1016,8 58 0 0,0
29.09.2020 20:00:00 16,2 13,9 15,2 6 4 17 9 WSW 1016,9 20 0 0,0
29.09.2020 19:00:00 16,5 13,4 15,9 9 5 26 14 WSW 1016,8 60 0 0,0
29.09.2020 18:00:00 17,2 13,7 16,6 16 9 32 17 WSW 1016,6 23 36 0,0
29.09.2020 17:00:00 17,8 14,1 16,8 18 10 34 18 WSW 1016,6 45 35 0,0
29.09.2020 16:00:00 17,7 14,6 16,5 19 10 34 18 WSW 1016,6 47 11 0,0
29.09.2020 15:00:00 17,8 15,1 16,5 15 8 33 18 WSW 1016,8 40 28 0,0
29.09.2020 14:00:00 17,9 15,7 17,4 16 8 30 16 WSW 1016,8 28 9 0,0
29.09.2020 13:00:00 18,0 16,2 17,0 15 8 26 14 WSW 1016,7 20 8 0,0
29.09.2020 12:00:00 17,0 15,7 16,7 13 7 27 15 WSW 1016,7 46 0 0,0
29.09.2020 11:00:00 17,0 16,4 16,2 12 6 22 12 WSW 1016,3 18 0 0,2
29.09.2020 10:00:00 16,4 16,2 13,8 12 7 24 13 WSW 1016,0 2,2 0 0,8
29.09.2020 09:00:00 13,7 13,4 13,2 5 3 9 5 SE 1015,7 4,8 0 0,0
29.09.2020 08:00:00 13,3 13,0 13,1 6 3 9 5 SE 1015,5 1,5 0 1,2
29.09.2020 07:00:00 13,5 13,0 13,3 4 2 10 6 SSE 1015,3 1,7 0 0,2
29.09.2020 06:00:00 13,5 12,9 13,4 5 3 6 4 SSE 1015,1 9 0 0,0
29.09.2020 05:00:00 13,7 13,1 13,5 6 3 7 4 SE 1015,0 8 0 0,0
29.09.2020 04:00:00 15,0 13,7 13,5 2 1 11 6 W 1015,1 14 0 0,0
29.09.2020 03:00:00 15,7 14,4 13,9 8 4 18 10 WNW 1015,1 15 0 0,0
29.09.2020 02:00:00 15,8 13,8 14,1 9 5 23 12 WNW 1015,0 20 0 0,0
29.09.2020 01:00:00 16,1 13,4 14,2 14 7 24 13 WNW 1014,8 42 0 0,0
29.09.2020 00:00:00 16,2 13,1 13,9 15 8 28 15 WNW 1015,1 52 0 0,0
28.09.2020 23:00:00 16,1 12,6 13,6 13 7 25 13 WNW 1014,9 56 0 0,0
28.09.2020 22:00:00 15,7 12,3 13,0 14 8 24 13 WNW 1014,5 59 0 0,0
28.09.2020 21:00:00 15,4 12,2 12,1 11 6 25 13 WNW 1014,3 60 0 0,0
28.09.2020 20:00:00 14,9 10,1 12,0 11 6 26 14 WNW 1013,9 60 0 0,0
28.09.2020 19:00:00 14,9 8,4 12,5 12 6 27 14 W 1013,3 55 44 0,0
28.09.2020 18:00:00 15,4 8,6 13,8 14 8 25 14 W 1013,1 51 39 0,0
28.09.2020 17:00:00 15,3 10,5 13,3 14 7 26 14 WNW 1012,9 52 11 0,0
28.09.2020 16:00:00 14,3 11,1 13,2 13 7 26 14 NW 1012,9 52 0 0,0
28.09.2020 15:00:00 13,9 11,4 13,2 16 9 26 14 NW 1013,0 48 0 0,0
28.09.2020 14:00:00 13,5 12,4 12,9 16 9 27 15 NW 1013,0 4,7 0 0,0
28.09.2020 13:00:00 13,3 11,9 12,6 16 9 25 14 NW 1012,7 17 0 0,0
28.09.2020 12:00:00 13,3 11,7 12,5 19 10 27 15 NNW 1012,4 51 0 0,0
28.09.2020 11:00:00 13,1 11,8 12,3 14 8 26 14 NNW 1011,9 32 0 0,0
28.09.2020 10:00:00 12,8 11,5 12,0 20 11 27 15 NNW 1011,7 20 0 0,0
28.09.2020 09:00:00 12,7 11,4 12,0 14 8 26 14 NNW 1011,5 40 0 0,0
28.09.2020 08:00:00 12,7 11,6 12,0 14 8 27 15 NNW 1011,0 20 0 0,0
28.09.2020 07:00:00 12,7 11,6 11,9 13 7 29 16 NNW 1010,9 19 0 0,0
28.09.2020 06:00:00 12,6 11,5 11,9 21 12 37 20 NNW 1010,4 18 0 0,0
28.09.2020 05:00:00 12,4 11,5 11,8 19 10 34 18 NNW 1010,5 43 0 0,0
28.09.2020 04:00:00 12,4 11,6 11,9 26 14 44 24 N 1010,8 12 0 0,0
28.09.2020 03:00:00 12,5 11,6 11,9 29 15 42 23 N 1010,9 8 0 0,0
28.09.2020 02:00:00 12,6 11,8 12,1 27 15 41 22 NNW 1010,9 7 0 0,2
28.09.2020 01:00:00 12,6 12,0 12,2 28 15 42 23 NNW 1011,2 2,3 0 0,0
28.09.2020 00:00:00 12,7 11,9 12,2 23 12 40 22 N 1011,2 5 0 0,0
27.09.2020 23:00:00 12,8 12,0 12,3 29 15 46 25 N 1011,0 4,7 0 0,0
27.09.2020 22:00:00 12,8 12,2 12,5 29 16 48 26 NNW 1010,9 2,8 0 0,0
27.09.2020 21:00:00 13,0 12,2 12,6 28 15 46 25 NNW 1010,6 2,4 0 0,2
27.09.2020 20:00:00 13,2 12,3 12,7 29 16 46 25 NNW 1009,9 5 0 0,0
27.09.2020 19:00:00 13,5 11,9 12,8 28 15 53 29 N 1009,5 8 0 0,0
27.09.2020 18:00:00 13,9 11,9 12,9 34 18 55 30 N 1008,9 16 0 0,0
27.09.2020 17:00:00 13,5 12,2 12,9 32 17 55 30 N 1008,3 9 0 0,0
27.09.2020 16:00:00 13,4 12,1 12,9 39 21 62 33 N 1008,1 5 0 0,0
27.09.2020 15:00:00 13,5 12,4 12,7 41 22 66 35 N 1007,6 3,3 1 0,0
27.09.2020 14:00:00 13,0 12,1 12,7 40 22 62 34 N 1007,6 4,1 0 0,0
27.09.2020 13:00:00 12,9 12,1 12,4 36 20 65 35 N 1007,0 2,7 0 0,2
27.09.2020 12:00:00 12,7 11,8 12,2 39 21 66 35 N 1006,6 2,7 0 0,2
27.09.2020 11:00:00 12,4 11,6 11,5 41 22 62 34 N 1006,1 2,3 0 0,2
27.09.2020 10:00:00 11,9 11,0 11,0 44 24 66 36 N 1005,7 2,5 0 0,2
27.09.2020 09:00:00 11,7 10,6 10,6 45 25 71 38 N 1005,6 2,5 0 0,4
27.09.2020 08:00:00 11,6 9,8 10,4 48 26 74 40 NNW 1005,5 16 0 0,6
27.09.2020 07:00:00 11,4 9,8 10,3 47 25 72 39 NNW 1005,5 7 0 1,0
27.09.2020 06:00:00 11,4 9,3 10,2 53 28 73 40 NNW 1005,8 14 0 0,2
27.09.2020 05:00:00 11,3 9,6 10,4 47 26 73 40 NNW 1006,3 7 0 0,8
27.09.2020 04:00:00 11,3 9,2 10,6 44 24 68 37 NNW 1006,9 6 0 0,0
27.09.2020 03:00:00 12,1 8,9 11,5 46 25 66 36 NNW 1007,3 16 0 0,0
27.09.2020 02:00:00 12,0 8,8 11,5 49 27 73 39 NNW 1007,6 19 0 0,0
27.09.2020 01:00:00 12,5 8,8 11,9 41 22 73 39 N 1007,9 15 0 0,0
27.09.2020 00:00:00 12,7 8,6 12,2 45 25 73 40 N 1007,9 15 0 0,0
26.09.2020 23:00:00 12,8 9,1 12,0 46 25 73 40 N 1007,8 15 0 0,0
26.09.2020 22:00:00 12,9 9,3 11,6 51 28 73 40 NNW 1007,8 12 0 0,0
26.09.2020 21:00:00 12,6 9,6 11,1 51 28 72 39 NNW 1007,4 14 0 0,0
26.09.2020 20:00:00 12,5 9,9 10,5 48 26 68 37 NNW 1007,5 17 0 0,0
26.09.2020 19:00:00 11,8 9,4 9,9 52 28 74 40 NNW 1007,6 20 0 0,2
26.09.2020 18:00:00 11,0 8,7 9,8 44 24 66 35 NNW 1007,5 7 0 1,0
26.09.2020 17:00:00 11,8 7,5 11,3 47 25 62 34 NNW 1007,7 18 0 0,0
26.09.2020 16:00:00 11,9 6,8 10,9 45 25 61 33 NNW 1007,7 18 0 0,0
26.09.2020 15:00:00 11,5 6,2 10,0 39 21 63 34 NW 1007,9 33 0 0,0
26.09.2020 14:00:00 11,6 6,3 11,5 41 22 67 36 NW 1008,1 21 0 0,0
26.09.2020 13:00:00 11,9 6,2 11,4 44 24 61 33 NNW 1008,1 20 17 0,0
26.09.2020 12:00:00 11,5 5,6 10,1 45 24 61 33 NNW 1008,2 58 1 0,0
26.09.2020 11:00:00 10,8 5,5 10,7 36 19 57 31 NW 1008,4 23 12 0,0
26.09.2020 10:00:00 10,8 5,3 10,2 40 21 65 35 NNW 1008,0 20 3 0,0
26.09.2020 09:00:00 10,4 5,2 9,8 44 24 63 34 NW 1007,7 10 15 0,0
26.09.2020 08:00:00 10,3 5,1 9,8 42 23 69 37 NW 1007,3 20 0 0,0
26.09.2020 07:00:00 10,6 5,1 9,9 43 23 68 37 NW 1007,1 20 0 0,0
26.09.2020 06:00:00 10,6 5,1 9,9 45 24 68 37 NW 1006,7 52 0 0,0
26.09.2020 05:00:00 10,8 4,9 10,2 45 24 79 43 NW 1006,7 60 0 0,0
26.09.2020 04:00:00 11,0 4,9 10,4 52 28 79 43 NNW 1006,9 57 0 0,0
26.09.2020 03:00:00 11,4 4,8 10,9 52 28 78 42 NW 1006,7 59 0 0,0
26.09.2020 02:00:00 11,8 5,4 11,1 53 29 87 47 NW 1006,5 59 0 0,0
26.09.2020 01:00:00 12,3 5,2 11,3 48 26 80 43 NW 1006,3 60 0 0,0
26.09.2020 00:00:00 12,6 4,5 11,4 50 27 79 42 NW 1006,5 60 0 0,0
25.09.2020 23:00:00 13,1 4,8 11,9 44 24 74 40 NW 1006,3 60 0 0,0

tt = temperature
td = dewpoint
tt 5cm = temperature 5cm
ff = wind speed
fx = gusts
dd = wind direction
ppp = reduced air pressure
vv = visibility
sd = sunshine duration
rr = precipitation

Next stations